TUA740 UWKD-UTAA

Flight info

Callsign TUA740
Flight time 3h 14m
Altitude 35000
Route INTAR T788 BENAP L991 MULTA M875 MILSO M161 LATNU N167 ADOBI B359 PODOK
Aircraft B738/M-Q/L

Departure

Time 2026-05-08 07:23
Airport Kazan International Airport (UWKD)

Arrival

Time 2026-05-08 10:37
Airport Ashgabat International Airport (UTAA)
Time Latitude Longitude Altitude Speed Heading
2026-05-08 06:51 55.60707 49.29593 409 ft 0 kts 35°
2026-05-08 07:16 55.60716 49.29605 408 ft 4 kts 35°
2026-05-08 07:16 55.60747 49.29620 408 ft 5 kts 341°
2026-05-08 07:16 55.60791 49.29534 405 ft 12 kts 304°
2026-05-08 07:17 55.60783 49.29393 405 ft 12 kts 219°
2026-05-08 07:17 55.60721 49.29315 406 ft 9 kts 214°
2026-05-08 07:17 55.60664 49.29246 405 ft 12 kts 213°
2026-05-08 07:17 55.60590 49.29133 404 ft 15 kts 242°
2026-05-08 07:18 55.60580 49.28939 402 ft 17 kts 271°
2026-05-08 07:18 55.60589 49.28722 402 ft 18 kts 275°
2026-05-08 07:18 55.60638 49.28504 400 ft 20 kts 304°
2026-05-08 07:18 55.60726 49.28275 394 ft 24 kts 303°
2026-05-08 07:19 55.60823 49.28021 391 ft 26 kts 305°
2026-05-08 07:19 55.60933 49.27740 383 ft 30 kts 304°
2026-05-08 07:19 55.61056 49.27421 377 ft 31 kts 304°
2026-05-08 07:19 55.61181 49.27103 371 ft 31 kts 305°
2026-05-08 07:20 55.61307 49.26776 364 ft 32 kts 303°
2026-05-08 07:20 55.61432 49.26449 357 ft 32 kts 305°
2026-05-08 07:20 55.61561 49.26125 351 ft 32 kts 303°
2026-05-08 07:20 55.61687 49.25791 345 ft 32 kts 303°
2026-05-08 07:21 55.61809 49.25445 339 ft 33 kts 298°
2026-05-08 07:21 55.61792 49.25213 335 ft 21 kts 214°
2026-05-08 07:21 55.61675 49.25182 337 ft 15 kts 127°
2026-05-08 07:21 55.61654 49.25231 338 ft 0 kts 126°
2026-05-08 07:22 55.61586 49.25386 342 ft 47 kts 126°
2026-05-08 07:22 55.61275 49.26192 356 ft 111 kts 123°
2026-05-08 07:22 55.60720 49.27623 385 ft 164 kts 127°
2026-05-08 07:22 55.60064 49.29350 795 ft 176 kts 127°
2026-05-08 07:23 55.59400 49.31109 1649 ft 168 kts 127°
2026-05-08 07:23 55.58731 49.32827 2113 ft 180 kts 127°
2026-05-08 07:23 55.57994 49.34716 2481 ft 194 kts 128°
2026-05-08 07:23 55.57209 49.36721 2871 ft 208 kts 127°
2026-05-08 07:24 55.56370 49.38838 3360 ft 215 kts 129°
2026-05-08 07:24 55.55474 49.41066 3733 ft 231 kts 127°
2026-05-08 07:24 55.54431 49.43386 3983 ft 252 kts 139°
2026-05-08 07:24 55.53122 49.45458 4518 ft 262 kts 140°
2026-05-08 07:25 55.51716 49.47728 4946 ft 279 kts 138°
2026-05-08 07:25 55.50309 49.50104 5621 ft 285 kts 137°
2026-05-08 07:25 55.47430 49.55042 6804 ft 296 kts 136°
2026-05-08 07:26 55.45972 49.57546 6909 ft 297 kts 136°
2026-05-08 07:26 55.44494 49.60086 6907 ft 293 kts 136°
2026-05-08 07:26 55.43059 49.62550 6905 ft 290 kts 136°
2026-05-08 07:26 55.41599 49.65054 6909 ft 291 kts 137°
2026-05-08 07:27 55.40158 49.67521 6906 ft 291 kts 137°
2026-05-08 07:27 55.38704 49.70008 6907 ft 291 kts 137°
2026-05-08 07:27 55.37263 49.72471 6900 ft 291 kts 137°
2026-05-08 07:27 55.35819 49.74937 6901 ft 291 kts 137°
2026-05-08 07:28 55.34359 49.77426 6901 ft 290 kts 137°
2026-05-08 07:28 55.32919 49.79879 6914 ft 291 kts 137°
2026-05-08 07:28 55.31462 49.82358 6894 ft 291 kts 137°
2026-05-08 07:28 55.30053 49.84865 6893 ft 291 kts 130°
2026-05-08 07:29 55.29008 49.87954 7081 ft 302 kts 114°
2026-05-08 07:29 55.28211 49.91282 8050 ft 294 kts 112°
2026-05-08 07:29 55.27422 49.94573 8721 ft 298 kts 112°
2026-05-08 07:29 55.26603 49.97910 9425 ft 300 kts 113°
2026-05-08 07:30 55.25769 50.01270 10113 ft 303 kts 113°
2026-05-08 07:30 55.24921 50.04675 10499 ft 317 kts 113°
2026-05-08 07:30 55.24009 50.08324 10891 ft 332 kts 113°
2026-05-08 07:30 55.23082 50.12027 11570 ft 335 kts 113°
2026-05-08 07:31 55.22147 50.15753 12251 ft 338 kts 113°
2026-05-08 07:31 55.21203 50.19506 12966 ft 341 kts 114°
2026-05-08 07:31 55.20240 50.23330 13699 ft 343 kts 113°
2026-05-08 07:31 55.19281 50.27134 14361 ft 347 kts 113°
2026-05-08 07:32 55.18314 50.30962 15064 ft 350 kts 113°
2026-05-08 07:32 55.17326 50.34866 15722 ft 354 kts 113°
2026-05-08 07:32 55.16334 50.38778 16421 ft 356 kts 113°
2026-05-08 07:32 55.15330 50.42730 17048 ft 360 kts 113°
2026-05-08 07:33 55.14307 50.46753 17690 ft 363 kts 113°
2026-05-08 07:33 55.13275 50.50799 18303 ft 367 kts 113°
2026-05-08 07:33 55.12245 50.54833 18937 ft 369 kts 113°
2026-05-08 07:33 55.11194 50.58940 19526 ft 373 kts 113°
2026-05-08 07:34 55.10144 50.63036 20080 ft 377 kts 113°
2026-05-08 07:34 55.09064 50.67240 20676 ft 379 kts 114°
2026-05-08 07:34 55.07993 50.71406 21223 ft 382 kts 114°
2026-05-08 07:34 55.06896 50.75659 21764 ft 385 kts 114°
2026-05-08 07:35 55.05738 50.79827 22300 ft 388 kts 117°
2026-05-08 07:35 55.04333 50.83894 22805 ft 392 kts 125°
2026-05-08 07:35 55.02633 50.87598 23324 ft 394 kts 131°
2026-05-08 07:35 55.00768 50.91107 23863 ft 396 kts 133°
2026-05-08 07:36 54.98871 50.94544 24401 ft 398 kts 134°
2026-05-08 07:36 54.96945 50.98011 24904 ft 400 kts 134°
2026-05-08 07:36 54.95025 51.01462 25377 ft 403 kts 134°
2026-05-08 07:36 54.93077 51.04964 25839 ft 405 kts 133°
2026-05-08 07:37 54.91118 51.08486 26265 ft 408 kts 133°
2026-05-08 07:37 54.89126 51.12064 26698 ft 411 kts 133°
2026-05-08 07:37 54.87159 51.15593 27132 ft 413 kts 133°
2026-05-08 07:37 54.85169 51.19160 27564 ft 415 kts 133°
2026-05-08 07:38 54.83137 51.22797 27986 ft 417 kts 133°
2026-05-08 07:38 54.81122 51.26399 28370 ft 420 kts 133°
2026-05-08 07:38 54.79094 51.30021 28792 ft 421 kts 133°
2026-05-08 07:38 54.77080 51.33611 29181 ft 423 kts 133°
2026-05-08 07:39 54.75014 51.37289 29547 ft 425 kts 133°
2026-05-08 07:39 54.72970 51.40921 29930 ft 427 kts 133°
2026-05-08 07:39 54.70883 51.44624 30276 ft 430 kts 133°
2026-05-08 07:39 54.68805 51.48307 30636 ft 431 kts 133°
2026-05-08 07:40 54.66693 51.52045 30941 ft 434 kts 133°
2026-05-08 07:40 54.64586 51.55768 31229 ft 437 kts 133°
2026-05-08 07:40 54.62460 51.59519 31589 ft 438 kts 132°
2026-05-08 07:40 54.60323 51.63283 31935 ft 439 kts 133°
2026-05-08 07:41 54.58189 51.67035 32221 ft 441 kts 133°
2026-05-08 07:41 54.56059 51.70776 32573 ft 442 kts 133°
2026-05-08 07:41 54.53884 51.74593 32874 ft 443 kts 133°
2026-05-08 07:41 54.51737 51.78354 33145 ft 446 kts 133°
2026-05-08 07:42 54.49570 51.82143 33445 ft 447 kts 133°
2026-05-08 07:42 54.47371 51.85979 33768 ft 447 kts 133°
2026-05-08 07:42 54.45196 51.89768 34002 ft 450 kts 133°
2026-05-08 07:42 54.43003 51.93583 34323 ft 450 kts 133°
2026-05-08 07:43 54.40811 51.97384 34775 ft 446 kts 133°
2026-05-08 07:43 54.38644 52.01133 34892 ft 449 kts 133°
2026-05-08 07:43 54.36427 52.04977 34907 ft 450 kts 133°
2026-05-08 07:44 54.32053 52.12532 34915 ft 446 kts 133°
2026-05-08 07:44 54.27716 52.19999 34914 ft 445 kts 133°
2026-05-08 07:45 54.23351 52.27490 34913 ft 444 kts 133°
2026-05-08 07:45 54.19014 52.34908 34914 ft 443 kts 133°
2026-05-08 07:46 54.14642 52.42363 34908 ft 443 kts 133°
2026-05-08 07:46 54.10279 52.49782 34911 ft 444 kts 133°
2026-05-08 07:47 54.05935 52.57143 34909 ft 443 kts 132°
2026-05-08 07:47 54.01579 52.64497 34905 ft 441 kts 133°
2026-05-08 07:48 53.97223 52.71831 34899 ft 441 kts 133°
2026-05-08 07:48 53.92862 52.79153 34887 ft 441 kts 133°
2026-05-08 07:49 53.88512 52.86433 34895 ft 442 kts 133°
2026-05-08 07:49 53.84139 52.93725 34891 ft 442 kts 133°
2026-05-08 07:50 53.79866 53.01037 34892 ft 440 kts 131°
2026-05-08 07:50 53.75673 53.08568 34885 ft 439 kts 131°
2026-05-08 07:51 53.71490 53.16054 34888 ft 439 kts 131°
2026-05-08 07:51 53.67283 53.23528 34896 ft 440 kts 131°
2026-05-08 07:52 53.63093 53.30939 34897 ft 440 kts 131°
2026-05-08 07:52 53.58876 53.38370 34883 ft 439 kts 130°
2026-05-08 07:53 53.54675 53.45747 34899 ft 440 kts 131°
2026-05-08 07:53 53.50430 53.53175 34893 ft 438 kts 130°
2026-05-08 07:54 53.46227 53.60508 34879 ft 439 kts 130°
2026-05-08 07:54 53.41986 53.67884 34869 ft 439 kts 131°
2026-05-08 07:55 53.37743 53.75237 34857 ft 439 kts 131°
2026-05-08 07:55 53.33536 53.82517 34868 ft 438 kts 131°
2026-05-08 07:56 53.29289 53.89861 34873 ft 439 kts 131°
2026-05-08 07:56 53.25071 53.97127 34850 ft 439 kts 131°
2026-05-08 07:57 53.20805 54.04452 34856 ft 439 kts 131°
2026-05-08 07:57 53.16576 54.11695 34875 ft 438 kts 131°
2026-05-08 07:58 53.12326 54.18951 34861 ft 438 kts 131°
2026-05-08 07:58 53.08067 54.26201 34858 ft 437 kts 131°
2026-05-08 07:59 53.03833 54.33384 34857 ft 438 kts 131°
2026-05-08 07:59 52.99548 54.40633 34847 ft 439 kts 131°
2026-05-08 08:00 52.95293 54.47797 34860 ft 438 kts 131°
2026-05-08 08:00 52.91027 54.54950 34865 ft 437 kts 131°
2026-05-08 08:01 52.86773 54.62064 34850 ft 437 kts 131°
2026-05-08 08:01 52.82474 54.69235 34849 ft 437 kts 133°
2026-05-08 08:02 52.78199 54.76345 34853 ft 437 kts 133°
2026-05-08 08:02 52.73935 54.83413 34850 ft 437 kts 132°
2026-05-08 08:03 52.69656 54.90484 34854 ft 437 kts 133°
2026-05-08 08:03 52.65357 54.97568 34845 ft 436 kts 133°
2026-05-08 08:04 52.61076 55.04602 34832 ft 437 kts 133°
2026-05-08 08:04 52.56756 55.11681 34847 ft 438 kts 133°
2026-05-08 08:05 52.52477 55.18673 34859 ft 437 kts 133°
2026-05-08 08:05 52.48122 55.25764 34827 ft 436 kts 133°
2026-05-08 08:06 52.43828 55.32737 34848 ft 437 kts 133°
2026-05-08 08:06 52.39513 55.39724 34832 ft 438 kts 133°
2026-05-08 08:07 52.35185 55.46712 34838 ft 437 kts 133°
2026-05-08 08:07 52.30849 55.53693 34864 ft 437 kts 133°
2026-05-08 08:08 52.26525 55.60633 34848 ft 436 kts 133°
2026-05-08 08:08 52.22200 55.67555 34845 ft 437 kts 134°
2026-05-08 08:09 52.17860 55.74480 34851 ft 437 kts 134°
2026-05-08 08:09 52.13550 55.81337 34851 ft 435 kts 134°
2026-05-08 08:10 52.09229 55.88193 34833 ft 436 kts 134°
2026-05-08 08:10 52.04888 55.95062 34832 ft 437 kts 134°
2026-05-08 08:11 52.00531 56.01936 34830 ft 438 kts 134°
2026-05-08 08:11 51.96184 56.08774 34835 ft 438 kts 134°
2026-05-08 08:12 51.91804 56.15644 34841 ft 438 kts 135°
2026-05-08 08:12 51.87438 56.22473 34833 ft 439 kts 135°
2026-05-08 08:13 51.83051 56.29314 34841 ft 437 kts 135°
2026-05-08 08:13 51.78701 56.36082 34833 ft 437 kts 135°
2026-05-08 08:14 51.74332 56.42856 34836 ft 438 kts 135°
2026-05-08 08:14 51.69929 56.49666 34833 ft 438 kts 135°
2026-05-08 08:15 51.65471 56.56276 34837 ft 439 kts 140°
2026-05-08 08:15 51.60183 56.61095 34845 ft 440 kts 159°
2026-05-08 08:16 51.54306 56.63955 34837 ft 441 kts 163°
2026-05-08 08:16 51.48426 56.66559 34840 ft 440 kts 164°
2026-05-08 08:17 51.42529 56.69172 34831 ft 441 kts 164°
2026-05-08 08:17 51.36624 56.71788 34841 ft 441 kts 164°
2026-05-08 08:18 51.30736 56.74397 34842 ft 441 kts 164°
2026-05-08 08:18 51.24805 56.77019 34841 ft 441 kts 164°
2026-05-08 08:19 51.18925 56.79611 34838 ft 441 kts 164°
2026-05-08 08:19 51.13010 56.82211 34836 ft 441 kts 164°
2026-05-08 08:20 51.07155 56.85228 34839 ft 441 kts 157°
2026-05-08 08:20 51.01572 56.89266 34841 ft 442 kts 154°
2026-05-08 08:21 50.96044 56.93484 34838 ft 440 kts 154°
2026-05-08 08:21 50.90538 56.97678 34841 ft 439 kts 154°
2026-05-08 08:22 50.85065 57.01834 34841 ft 441 kts 154°
2026-05-08 08:22 50.79497 57.06052 34837 ft 441 kts 154°
2026-05-08 08:23 50.74018 57.10190 34841 ft 440 kts 154°
2026-05-08 08:23 50.68467 57.14373 34852 ft 440 kts 154°
2026-05-08 08:24 50.62980 57.18497 34848 ft 440 kts 155°
2026-05-08 08:24 50.57441 57.22649 34856 ft 439 kts 155°
2026-05-08 08:25 50.51968 57.26740 34852 ft 437 kts 155°
2026-05-08 08:25 50.46450 57.30850 34858 ft 437 kts 155°
2026-05-08 08:26 50.40987 57.34911 34860 ft 438 kts 155°
2026-05-08 08:26 50.35469 57.39006 34859 ft 437 kts 155°
2026-05-08 08:27 50.30012 57.43042 34865 ft 437 kts 155°
2026-05-08 08:27 50.24530 57.47085 34867 ft 437 kts 155°
2026-05-08 08:28 50.19038 57.51127 34865 ft 437 kts 155°
2026-05-08 08:28 50.13550 57.55156 34859 ft 437 kts 155°
2026-05-08 08:29 50.08065 57.59171 34864 ft 437 kts 155°
2026-05-08 08:29 50.02544 57.63205 34863 ft 436 kts 155°
2026-05-08 08:30 49.97096 57.67176 34857 ft 436 kts 156°
2026-05-08 08:30 49.88872 57.73149 34854 ft 436 kts 156°
2026-05-08 08:31 49.83371 57.77131 34849 ft 435 kts 157°
2026-05-08 08:31 49.77882 57.81096 34850 ft 436 kts 157°
2026-05-08 08:32 49.72391 57.85051 34848 ft 436 kts 157°
2026-05-08 08:32 49.66885 57.88959 34854 ft 436 kts 158°
2026-05-08 08:33 49.61399 57.92798 34860 ft 436 kts 157°
2026-05-08 08:33 49.55848 57.96675 34852 ft 436 kts 158°
2026-05-08 08:34 49.50352 58.00510 34857 ft 435 kts 158°
2026-05-08 08:34 49.44831 58.04353 34872 ft 436 kts 158°
2026-05-08 08:35 49.39317 58.08181 34875 ft 436 kts 158°
2026-05-08 08:35 49.33787 58.12013 34876 ft 437 kts 158°
2026-05-08 08:36 49.28238 58.15849 34877 ft 438 kts 158°
2026-05-08 08:36 49.22713 58.19658 34880 ft 438 kts 158°
2026-05-08 08:37 49.17194 58.23454 34884 ft 438 kts 158°
2026-05-08 08:37 49.11637 58.27270 34873 ft 437 kts 158°
2026-05-08 08:38 49.06089 58.31068 34875 ft 437 kts 159°
2026-05-08 08:38 49.00534 58.34859 34884 ft 438 kts 159°
2026-05-08 08:39 48.94984 58.38640 34882 ft 438 kts 159°
2026-05-08 08:39 48.89433 58.42412 34882 ft 438 kts 159°
2026-05-08 08:40 48.83885 58.46173 34885 ft 439 kts 159°
2026-05-08 08:40 48.78285 58.49960 34886 ft 439 kts 159°
2026-05-08 08:41 48.72724 58.53712 34887 ft 438 kts 159°
2026-05-08 08:41 48.67173 58.57447 34893 ft 439 kts 159°
2026-05-08 08:42 48.61566 58.61211 34881 ft 438 kts 159°
2026-05-08 08:42 48.56010 58.64930 34893 ft 439 kts 160°
2026-05-08 08:43 48.50425 58.68661 34890 ft 439 kts 160°
2026-05-08 08:43 48.44879 58.72356 34892 ft 440 kts 160°
2026-05-08 08:44 48.39272 58.76084 34890 ft 440 kts 160°
2026-05-08 08:44 48.33674 58.79797 34887 ft 440 kts 160°
2026-05-08 08:45 48.28101 58.83484 34887 ft 440 kts 161°
2026-05-08 08:45 48.22514 58.87171 34886 ft 440 kts 161°
2026-05-08 08:46 48.16934 58.90845 34882 ft 439 kts 161°
2026-05-08 08:46 48.11352 58.94510 34885 ft 440 kts 161°
2026-05-08 08:47 48.05767 58.98170 34741 ft 439 kts 161°
2026-05-08 08:47 48.02980 58.99994 34842 ft 438 kts 161°
2026-05-08 08:47 48.00194 59.01813 34871 ft 441 kts 161°
2026-05-08 08:48 47.94577 59.05474 34894 ft 442 kts 161°
2026-05-08 08:48 47.88956 59.09134 34906 ft 440 kts 161°
2026-05-08 08:49 47.83358 59.12767 34913 ft 441 kts 162°
2026-05-08 08:49 47.77737 59.16402 34920 ft 441 kts 162°
2026-05-08 08:50 47.72143 59.20017 34915 ft 440 kts 162°
2026-05-08 08:50 47.66596 59.23817 34919 ft 442 kts 160°
2026-05-08 08:51 47.61101 59.27788 34923 ft 441 kts 160°
2026-05-08 08:51 47.55576 59.31750 34924 ft 441 kts 160°
2026-05-08 08:52 47.50060 59.35681 34924 ft 440 kts 160°
2026-05-08 08:52 47.44537 59.39589 34919 ft 441 kts 160°
2026-05-08 08:53 47.39019 59.43487 34926 ft 441 kts 160°
2026-05-08 08:53 47.33480 59.47398 34920 ft 441 kts 160°
2026-05-08 08:54 47.27977 59.51271 34930 ft 441 kts 160°
2026-05-08 08:54 47.22428 59.55166 34940 ft 440 kts 160°
2026-05-08 08:55 47.16928 59.59018 34933 ft 439 kts 160°
2026-05-08 08:55 47.11403 59.62875 34940 ft 440 kts 161°
2026-05-08 08:56 47.05927 59.66694 34936 ft 438 kts 161°
2026-05-08 08:56 47.00395 59.70536 34944 ft 439 kts 161°
2026-05-08 08:57 46.94902 59.74345 34949 ft 438 kts 162°
2026-05-08 08:57 46.89399 59.78155 34956 ft 439 kts 162°
2026-05-08 08:58 46.83881 59.81960 34959 ft 438 kts 161°
2026-05-08 08:58 46.78397 59.85734 34955 ft 439 kts 162°
2026-05-08 08:59 46.72909 59.89510 34953 ft 437 kts 161°
2026-05-08 08:59 46.67409 59.93281 34949 ft 436 kts 161°
2026-05-08 09:00 46.61946 59.97018 34962 ft 437 kts 162°
2026-05-08 09:00 46.56438 60.00779 34961 ft 436 kts 162°
2026-05-08 09:01 46.50975 60.04497 34971 ft 437 kts 162°
2026-05-08 09:01 46.45471 60.08235 34972 ft 436 kts 162°
2026-05-08 09:02 46.39971 60.11964 34971 ft 438 kts 162°
2026-05-08 09:02 46.34467 60.15688 34993 ft 437 kts 162°
2026-05-08 09:03 46.28988 60.19388 34999 ft 437 kts 162°
2026-05-08 09:03 46.23449 60.23115 34992 ft 437 kts 162°
2026-05-08 09:04 46.17956 60.26807 35002 ft 436 kts 162°
2026-05-08 09:04 46.12463 60.30487 35004 ft 438 kts 162°
2026-05-08 09:05 46.06915 60.34200 35013 ft 436 kts 162°
2026-05-08 09:05 46.01439 60.37856 35013 ft 438 kts 162°
2026-05-08 09:06 45.95916 60.41535 35019 ft 438 kts 162°
2026-05-08 09:06 45.90403 60.45198 35012 ft 438 kts 161°
2026-05-08 09:07 45.84861 60.48872 35018 ft 438 kts 161°
2026-05-08 09:07 45.79331 60.52532 35015 ft 439 kts 161°
2026-05-08 09:08 45.73808 60.56179 35024 ft 438 kts 161°
2026-05-08 09:08 45.68297 60.59806 35020 ft 439 kts 161°
2026-05-08 09:09 45.62729 60.63464 35024 ft 440 kts 161°
2026-05-08 09:09 45.57187 60.67098 35023 ft 439 kts 162°
2026-05-08 09:10 45.51636 60.70732 35025 ft 441 kts 162°
2026-05-08 09:10 45.46089 60.74390 35031 ft 441 kts 160°
2026-05-08 09:11 45.40804 60.78950 35035 ft 450 kts 149°
2026-05-08 09:11 45.35995 60.84707 35033 ft 454 kts 144°
2026-05-08 09:12 45.31316 60.90667 35033 ft 455 kts 144°
2026-05-08 09:12 45.26600 60.96663 35038 ft 454 kts 144°
2026-05-08 09:13 45.21895 61.02620 35038 ft 454 kts 144°
2026-05-08 09:13 45.17182 61.08567 35038 ft 455 kts 144°
2026-05-08 09:14 45.12459 61.14510 35035 ft 456 kts 144°
2026-05-08 09:14 45.07753 61.20418 35034 ft 455 kts 144°
2026-05-08 09:15 45.02994 61.26378 35026 ft 456 kts 144°
2026-05-08 09:15 44.98200 61.32161 35025 ft 451 kts 149°
2026-05-08 09:16 44.92787 61.36060 35024 ft 433 kts 170°
2026-05-08 09:16 44.86936 61.37529 35017 ft 423 kts 184°
2026-05-08 09:17 44.81211 61.36319 35021 ft 414 kts 198°
2026-05-08 09:17 44.75921 61.33398 35019 ft 409 kts 210°
2026-05-08 09:18 44.70891 61.29674 35017 ft 409 kts 211°
2026-05-08 09:18 44.65865 61.25949 35017 ft 409 kts 210°
2026-05-08 09:19 44.60815 61.22255 35018 ft 409 kts 210°
2026-05-08 09:19 44.55775 61.18593 35019 ft 408 kts 210°
2026-05-08 09:20 44.50778 61.14981 35020 ft 407 kts 210°
2026-05-08 09:20 44.45755 61.11359 35019 ft 407 kts 210°
2026-05-08 09:21 44.40702 61.07726 35019 ft 407 kts 211°
2026-05-08 09:23 44.22080 60.97853 35016 ft 412 kts 204°
2026-05-08 09:23 44.16720 60.95176 35018 ft 411 kts 204°
2026-05-08 09:24 44.11333 60.92480 35017 ft 412 kts 204°
2026-05-08 09:24 44.05946 60.89785 35016 ft 414 kts 204°
2026-05-08 09:25 44.00553 60.87091 35018 ft 411 kts 204°
2026-05-08 09:25 43.95174 60.84410 35014 ft 410 kts 204°
2026-05-08 09:26 43.89807 60.81739 35016 ft 411 kts 204°
2026-05-08 09:26 43.84446 60.79075 35016 ft 409 kts 204°
2026-05-08 09:27 43.79120 60.76437 35022 ft 407 kts 204°
2026-05-08 09:27 43.73782 60.73797 35025 ft 408 kts 204°
2026-05-08 09:28 43.68442 60.71157 35026 ft 408 kts 205°
2026-05-08 09:28 43.63114 60.68532 35024 ft 407 kts 204°
2026-05-08 09:29 43.57789 60.65908 35012 ft 407 kts 205°
2026-05-08 09:29 43.52497 60.63307 35025 ft 406 kts 205°
2026-05-08 09:30 43.47183 60.60704 35023 ft 406 kts 205°
2026-05-08 09:30 43.41869 60.58103 35017 ft 405 kts 205°
2026-05-08 09:31 43.36605 60.55533 35024 ft 403 kts 205°
2026-05-08 09:31 43.31300 60.52949 35022 ft 404 kts 205°
2026-05-08 09:32 43.26017 60.50378 35019 ft 404 kts 205°
2026-05-08 09:32 43.20741 60.47815 35015 ft 403 kts 205°
2026-05-08 09:33 43.15473 60.45262 35010 ft 401 kts 205°
2026-05-08 09:33 43.10234 60.42725 35021 ft 402 kts 206°
2026-05-08 09:34 43.04964 60.40179 35014 ft 400 kts 206°
2026-05-08 09:34 42.99710 60.37645 35017 ft 400 kts 206°
2026-05-08 09:35 42.94500 60.35137 35014 ft 399 kts 206°
2026-05-08 09:35 42.89270 60.32623 35017 ft 399 kts 206°
2026-05-08 09:36 42.84053 60.30121 35016 ft 396 kts 206°
2026-05-08 09:36 42.78899 60.27657 35019 ft 393 kts 206°
2026-05-08 09:37 42.73721 60.25177 35018 ft 396 kts 206°
2026-05-08 09:37 42.68527 60.22707 35017 ft 390 kts 206°
2026-05-08 09:38 42.63429 60.20281 35023 ft 392 kts 206°
2026-05-08 09:38 42.58311 60.17852 35027 ft 386 kts 207°
2026-05-08 09:39 42.53251 60.15449 35027 ft 389 kts 207°
2026-05-08 09:39 42.48152 60.13031 35028 ft 385 kts 207°
2026-05-08 09:40 42.43130 60.10658 35029 ft 385 kts 207°
2026-05-08 09:40 42.38089 60.08268 35032 ft 385 kts 207°
2026-05-08 09:41 42.33062 60.05908 35034 ft 382 kts 207°
2026-05-08 09:41 42.28035 60.03541 35033 ft 381 kts 207°
2026-05-08 09:42 42.23073 60.01207 35033 ft 378 kts 207°
2026-05-08 09:42 42.18126 59.98887 35035 ft 374 kts 207°
2026-05-08 09:43 42.13231 59.96588 35038 ft 376 kts 208°
2026-05-08 09:43 42.08264 59.94274 35036 ft 375 kts 208°
2026-05-08 09:44 42.03384 59.92009 35041 ft 371 kts 208°
2026-05-08 09:44 41.98501 59.89771 35044 ft 374 kts 208°
2026-05-08 09:45 41.93568 59.87515 35041 ft 373 kts 208°
2026-05-08 09:45 41.88687 59.85269 35048 ft 372 kts 207°
2026-05-08 09:46 41.83779 59.83064 35041 ft 374 kts 208°
2026-05-08 09:46 41.78878 59.80833 35047 ft 371 kts 207°
2026-05-08 09:47 41.73909 59.78767 35045 ft 379 kts 204°
2026-05-08 09:47 41.68735 59.77232 35040 ft 382 kts 203°
2026-05-08 09:48 41.63544 59.75660 35037 ft 379 kts 203°
2026-05-08 09:48 41.58435 59.74091 35037 ft 379 kts 204°
2026-05-08 09:49 41.53250 59.72498 35034 ft 382 kts 203°
2026-05-08 09:49 41.48100 59.70926 35036 ft 380 kts 203°
2026-05-08 09:50 41.42948 59.69363 35035 ft 382 kts 202°
2026-05-08 09:50 41.37774 59.67794 35036 ft 382 kts 202°
2026-05-08 09:51 41.32605 59.66161 35030 ft 381 kts 205°
2026-05-08 09:51 41.27581 59.64071 35031 ft 377 kts 207°
2026-05-08 09:52 41.22555 59.61954 35030 ft 378 kts 206°
2026-05-08 09:52 41.17555 59.59895 35028 ft 379 kts 206°
2026-05-08 09:53 41.12538 59.57845 35032 ft 375 kts 206°
2026-05-08 09:53 41.07549 59.55802 35030 ft 379 kts 206°
2026-05-08 09:54 41.02536 59.53779 35036 ft 376 kts 206°
2026-05-08 09:54 40.97540 59.51709 35041 ft 379 kts 206°
2026-05-08 09:55 40.92506 59.49652 35051 ft 380 kts 206°
2026-05-08 09:55 40.87477 59.47600 35044 ft 377 kts 207°
2026-05-08 09:56 40.82477 59.45540 35041 ft 381 kts 205°
2026-05-08 09:56 40.77443 59.43528 35037 ft 376 kts 206°
2026-05-08 09:57 40.69842 59.40407 35036 ft 382 kts 206°
2026-05-08 09:57 40.64821 59.38349 35035 ft 377 kts 206°
2026-05-08 09:58 40.59766 59.36315 35035 ft 381 kts 205°
2026-05-08 09:58 40.54670 59.34280 35039 ft 385 kts 205°
2026-05-08 09:59 40.49588 59.32233 35035 ft 381 kts 205°
2026-05-08 09:59 40.44523 59.30178 35034 ft 384 kts 204°
2026-05-08 10:00 40.39417 59.28154 35036 ft 384 kts 204°
2026-05-08 10:00 40.34303 59.26099 35039 ft 384 kts 205°
2026-05-08 10:01 40.29211 59.24072 35036 ft 388 kts 204°
2026-05-08 10:01 40.24080 59.21994 35034 ft 383 kts 205°
2026-05-08 10:02 40.18959 59.19967 35032 ft 384 kts 205°
2026-05-08 10:02 40.13844 59.17965 35027 ft 387 kts 205°
2026-05-08 10:03 40.08685 59.15922 35028 ft 388 kts 205°
2026-05-08 10:03 40.03565 59.13909 35024 ft 385 kts 204°
2026-05-08 10:04 39.98418 59.11853 35028 ft 387 kts 205°
2026-05-08 10:04 39.93262 59.09803 35026 ft 388 kts 204°
2026-05-08 10:05 39.88142 59.07793 35023 ft 385 kts 205°
2026-05-08 10:05 39.83005 59.05700 35022 ft 389 kts 205°
2026-05-08 10:06 39.77816 59.03649 35019 ft 386 kts 205°
2026-05-08 10:06 39.72702 59.01642 35025 ft 389 kts 204°
2026-05-08 10:07 39.67535 58.99601 35021 ft 386 kts 204°
2026-05-08 10:07 39.62387 58.97558 35019 ft 389 kts 204°
2026-05-08 10:08 39.57200 58.95511 35015 ft 391 kts 204°
2026-05-08 10:08 39.54621 58.94501 34767 ft 386 kts 204°
2026-05-08 10:08 39.52063 58.93504 34186 ft 387 kts 205°
2026-05-08 10:09 39.49511 58.92504 33682 ft 383 kts 204°
2026-05-08 10:09 39.46965 58.91507 33165 ft 379 kts 204°
2026-05-08 10:09 39.44463 58.90525 32571 ft 376 kts 204°
2026-05-08 10:09 39.42009 58.89558 32007 ft 373 kts 204°
2026-05-08 10:10 39.39525 58.88580 31383 ft 372 kts 204°
2026-05-08 10:10 39.37049 58.87608 30777 ft 370 kts 203°
2026-05-08 10:10 39.34626 58.86662 30273 ft 365 kts 202°
2026-05-08 10:10 39.32213 58.85720 29778 ft 361 kts 203°
2026-05-08 10:11 39.29826 58.84788 29302 ft 357 kts 202°
2026-05-08 10:11 39.27468 58.83868 28827 ft 353 kts 203°
2026-05-08 10:11 39.25141 58.82956 28354 ft 349 kts 203°
2026-05-08 10:11 39.22803 58.82044 27872 ft 346 kts 202°
2026-05-08 10:12 39.20507 58.81151 27395 ft 344 kts 202°
2026-05-08 10:12 39.18259 58.80274 26932 ft 341 kts 202°
2026-05-08 10:12 39.15999 58.79390 26459 ft 339 kts 202°
2026-05-08 10:12 39.13717 58.78500 25990 ft 341 kts 202°
2026-05-08 10:13 39.11465 58.77620 25518 ft 345 kts 202°
2026-05-08 10:13 39.09165 58.76724 25039 ft 347 kts 202°
2026-05-08 10:13 39.06847 58.75822 24546 ft 344 kts 202°
2026-05-08 10:13 39.04580 58.74924 24048 ft 341 kts 202°
2026-05-08 10:14 39.02333 58.74016 23565 ft 338 kts 203°
2026-05-08 10:14 39.00110 58.73118 23086 ft 335 kts 202°
2026-05-08 10:14 38.97910 58.72233 22620 ft 332 kts 202°
2026-05-08 10:14 38.95697 58.71340 22156 ft 329 kts 202°
2026-05-08 10:15 38.93537 58.70467 21699 ft 326 kts 202°
2026-05-08 10:15 38.91389 58.69603 21245 ft 327 kts 202°
2026-05-08 10:15 38.89192 58.68717 20776 ft 330 kts 202°
2026-05-08 10:15 38.87012 58.67839 20305 ft 331 kts 201°
2026-05-08 10:16 38.84833 58.66966 19842 ft 328 kts 201°
2026-05-08 10:16 38.82635 58.66086 19379 ft 326 kts 201°
2026-05-08 10:16 38.80494 58.65231 18926 ft 323 kts 201°
2026-05-08 10:16 38.78346 58.64488 18478 ft 323 kts 197°
2026-05-08 10:17 38.76111 58.64055 18021 ft 324 kts 189°
2026-05-08 10:17 38.73869 58.63891 17562 ft 322 kts 188°
2026-05-08 10:17 38.71775 58.63251 17383 ft 302 kts 211°
2026-05-08 10:17 38.70163 58.61655 17342 ft 285 kts 225°
2026-05-08 10:18 38.68787 58.59921 17277 ft 272 kts 226°
2026-05-08 10:18 38.67463 58.58275 17215 ft 259 kts 225°
2026-05-08 10:18 38.66198 58.56731 17155 ft 247 kts 225°
2026-05-08 10:18 38.64962 58.55252 17097 ft 238 kts 224°
2026-05-08 10:19 38.63737 58.53818 17053 ft 239 kts 224°
2026-05-08 10:19 38.62497 58.52422 17002 ft 243 kts 223°
2026-05-08 10:19 38.61181 58.51006 16951 ft 245 kts 221°
2026-05-08 10:20 38.58396 58.48231 16868 ft 278 kts 218°
2026-05-08 10:20 38.56757 58.46775 16785 ft 294 kts 216°
2026-05-08 10:20 38.55013 58.45370 16700 ft 296 kts 214°
2026-05-08 10:20 38.53251 58.44047 16617 ft 293 kts 212°
2026-05-08 10:21 38.51484 58.42791 16535 ft 291 kts 211°
2026-05-08 10:21 38.49686 58.41587 16462 ft 291 kts 210°
2026-05-08 10:21 38.47861 58.40445 16392 ft 291 kts 209°
2026-05-08 10:21 38.46027 58.39376 16320 ft 291 kts 207°
2026-05-08 10:22 38.44154 58.38370 16236 ft 292 kts 205°
2026-05-08 10:22 38.42274 58.37444 16159 ft 290 kts 204°
2026-05-08 10:22 38.40318 58.36706 16026 ft 296 kts 191°
2026-05-08 10:22 38.38238 58.36911 15935 ft 303 kts 169°
2026-05-08 10:23 38.36325 58.37931 15870 ft 301 kts 160°
2026-05-08 10:23 38.34429 58.39147 15472 ft 305 kts 159°
2026-05-08 10:23 38.32541 58.40358 14885 ft 308 kts 160°
2026-05-08 10:23 38.30632 58.41565 14328 ft 306 kts 160°
2026-05-08 10:24 38.28727 58.42757 13776 ft 302 kts 160°
2026-05-08 10:24 38.26850 58.43925 13214 ft 299 kts 160°
2026-05-08 10:24 38.25008 58.45065 12646 ft 296 kts 160°
2026-05-08 10:24 38.23164 58.46204 12105 ft 294 kts 160°
2026-05-08 10:25 38.21339 58.47328 11550 ft 291 kts 160°
2026-05-08 10:25 38.19532 58.48483 10992 ft 292 kts 153°
2026-05-08 10:25 38.17986 58.50129 10450 ft 296 kts 140°
2026-05-08 10:25 38.16588 58.52032 9906 ft 295 kts 137°
2026-05-08 10:26 38.15200 58.53958 9346 ft 293 kts 137°
2026-05-08 10:26 38.13840 58.55837 8809 ft 291 kts 137°
2026-05-08 10:26 38.12469 58.57694 8247 ft 289 kts 137°
2026-05-08 10:26 38.11076 58.59533 7693 ft 287 kts 137°
2026-05-08 10:27 38.09687 58.61331 7182 ft 284 kts 137°
2026-05-08 10:27 38.08300 58.63100 6688 ft 281 kts 137°
2026-05-08 10:27 38.06932 58.64811 6214 ft 276 kts 137°
2026-05-08 10:27 38.05572 58.66475 5768 ft 272 kts 137°
2026-05-08 10:28 38.04202 58.68118 5318 ft 269 kts 137°
2026-05-08 10:28 38.02844 58.69731 4880 ft 264 kts 137°
2026-05-08 10:28 38.01512 58.71291 4509 ft 258 kts 137°
2026-05-08 10:28 38.00208 58.72794 4166 ft 252 kts 137°
2026-05-08 10:29 37.98920 58.74254 3943 ft 240 kts 137°
2026-05-08 10:29 37.97694 58.75618 3764 ft 230 kts 141°
2026-05-08 10:29 37.96292 58.76469 3542 ft 224 kts 172°
2026-05-08 10:29 37.94794 58.76233 3418 ft 214 kts 204°
2026-05-08 10:30 37.93657 58.75120 3233 ft 208 kts 230°
2026-05-08 10:30 37.92774 58.73714 3040 ft 202 kts 230°
2026-05-08 10:30 37.92063 58.72221 2932 ft 195 kts 256°
2026-05-08 10:30 37.91864 58.70561 2948 ft 187 kts 264°
2026-05-08 10:31 37.91707 58.68927 2962 ft 190 kts 263°
2026-05-08 10:31 37.91537 58.67255 2964 ft 192 kts 264°
2026-05-08 10:31 37.91361 58.65599 2950 ft 190 kts 263°
2026-05-08 10:31 37.91203 58.63930 2948 ft 190 kts 266°
2026-05-08 10:32 37.91095 58.62262 2951 ft 189 kts 266°
2026-05-08 10:32 37.90995 58.60643 3012 ft 179 kts 266°
2026-05-08 10:32 37.90899 58.59060 2960 ft 183 kts 266°
2026-05-08 10:32 37.90800 58.57476 2954 ft 179 kts 266°
2026-05-08 10:33 37.90696 58.55892 2958 ft 181 kts 267°
2026-05-08 10:33 37.90673 58.54311 2947 ft 180 kts 271°
2026-05-08 10:33 37.90765 58.52748 2934 ft 176 kts 288°
2026-05-08 10:33 37.91231 58.51379 2953 ft 168 kts 296°
2026-05-08 10:34 37.91700 58.50015 2914 ft 169 kts 295°
2026-05-08 10:34 37.92176 58.48659 2681 ft 171 kts 298°
2026-05-08 10:34 37.92762 58.47371 2499 ft 165 kts 304°
2026-05-08 10:34 37.93381 58.46124 2363 ft 163 kts 303°
2026-05-08 10:35 37.93945 58.44875 2083 ft 165 kts 300°
2026-05-08 10:35 37.94498 58.43623 1770 ft 163 kts 301°
2026-05-08 10:35 37.95047 58.42371 1532 ft 161 kts 300°
2026-05-08 10:35 37.95580 58.41165 1385 ft 155 kts 302°
2026-05-08 10:36 37.96127 58.39970 1182 ft 155 kts 302°
2026-05-08 10:36 37.96655 58.38788 988 ft 154 kts 299°
2026-05-08 10:36 37.97183 58.37613 777 ft 153 kts 301°
2026-05-08 10:36 37.97694 58.36508 695 ft 133 kts 299°
2026-05-08 10:37 37.97989 58.35827 697 ft 47 kts 300°
2026-05-08 10:37 37.98116 58.35539 699 ft 29 kts 298°
2026-05-08 10:37 37.98237 58.35319 699 ft 33 kts 319°
2026-05-08 10:37 37.98432 58.35162 699 ft 27 kts 333°
2026-05-08 10:38 37.98472 58.35161 699 ft 0 kts 25°
2026-05-08 10:38 37.98493 58.35182 698 ft 9 kts 57°
2026-05-08 10:38 37.98475 58.35294 697 ft 16 kts 120°
2026-05-08 10:38 37.98408 58.35442 696 ft 21 kts 120°
2026-05-08 10:39 37.98333 58.35609 696 ft 22 kts 118°
2026-05-08 10:39 37.98253 58.35789 696 ft 23 kts 120°
2026-05-08 10:39 37.98167 58.35983 693 ft 26 kts 120°
2026-05-08 10:39 37.98092 58.36154 693 ft 13 kts 114°
2026-05-08 10:40 37.98121 58.36241 694 ft 11 kts 30°
2026-05-08 10:40 37.98209 58.36302 695 ft 18 kts 30°
2026-05-08 10:40 37.98303 58.36372 696 ft 12 kts 45°
2026-05-08 10:40 37.98293 58.36485 696 ft 15 kts 119°
2026-05-08 10:41 37.98233 58.36620 696 ft 17 kts 121°
2026-05-08 10:41 37.98219 58.36659 697 ft 2 kts 75°
2026-05-08 10:41 37.98248 58.36690 697 ft 9 kts 28°
2026-05-08 10:41 37.98302 58.36726 697 ft 0 kts 27°